GFSNIL_925_spd_000.txt.gz
Wind_Speed
4 6 7 6 7 7 7 7 7 7 9 10 11 12 13 14 17 18 20 23 24 25
5 6 6 7 7 7 7 7 7 9 9 9 10 10 11 14 16 17 20 23 25 27
6 5 6 7 8 8 8 9 10 11 10 9 9 9 10 14 14 16 19 22 26 27
6 5 6 7 8 9 9 10 11 12 13 13 13 12 12 13 15 18 21 24 26 29
7 6 7 9 10 11 11 12 13 14 14 15 15 14 13 14 17 21 25 27 29 32
8 7 7 9 10 11 12 14 15 16 15 15 14 14 14 15 17 18 20 23 27 26
8 8 9 9 10 11 13 15 15 15 15 14 13 13 13 11 13 14 17 21 25 27
10 9 10 11 12 13 14 14 14 14 14 14 14 13 6 9 10 12 15 19 28 33
11 12 13 13 13 14 14 14 13 13 13 14 14 10 6 5 9 11 13 18 23 32
11 12 12 12 13 13 13 14 14 13 13 12 12 12 11 7 7 9 10 12 17 26
12 12 12 11 12 13 14 13 13 13 11 12 14 13 15 13 12 10 10 11 14 20
13 12 12 12 13 12 12 12 13 12 11 13 15 16 15 18 17 16 16 15 18 16
12 12 13 13 13 12 11 11 10 11 12 14 15 14 15 16 19 19 20 20 22 22
12 13 13 13 13 12 12 12 12 13 12 13 10 10 11 11 16 19 21 23 21 22

GFSNIL_925_spd_003.txt.gz
Wind_Speed
4 7 7 6 6 9 8 9 7 7 10 11 11 12 13 14 15 16 17 19 20 21
5 6 7 7 7 9 7 9 7 9 11 12 11 10 12 14 11 13 16 17 19 22
5 6 6 7 8 9 10 10 11 11 12 13 13 13 12 14 12 14 15 19 20 23
6 6 6 8 8 9 10 11 12 13 14 15 14 15 14 14 14 14 19 20 20 23
7 7 7 8 9 10 11 12 13 15 17 16 15 17 14 16 16 16 17 18 18 21
8 8 8 9 9 10 11 13 15 16 17 17 17 15 15 16 15 15 15 15 16 19
8 9 10 10 9 10 12 14 16 16 17 16 17 18 17 15 13 14 15 14 13 16
9 10 10 10 11 12 13 15 16 16 17 17 18 18 5 11 15 16 16 14 13 13
9 10 11 11 11 12 14 14 15 15 17 18 18 14 16 17 16 17 16 15 15 16
11 11 11 11 11 12 13 15 14 15 15 16 17 15 15 18 17 19 18 17 17 19
12 12 11 12 13 12 13 14 13 15 16 15 16 17 15 18 19 20 20 20 22 21
14 14 13 13 13 13 12 13 13 16 18 15 17 15 18 17 17 21 19 21 22 21
15 13 13 14 12 11 14 14 15 15 14 16 19 18 10 11 14 17 17 20 20 21
15 13 13 12 10 19 15 14 14 14 17 18 27 19 15 10 10 13 16 19 21 20

GFSNIL_925_spd_006.txt.gz
Wind_Speed
3 4 4 2 0 3 7 7 9 7 6 10 11 12 11 15 13 12 11 11 12 14
7 5 5 2 2 5 4 5 5 6 9 13 15 14 13 14 16 9 9 11 12 16
10 7 7 5 5 6 8 8 9 10 11 13 16 16 15 16 16 14 12 12 15 12
7 8 9 7 7 8 9 9 11 12 13 16 18 18 15 15 16 15 11 12 12 10
9 8 8 8 8 8 9 10 11 13 15 17 18 18 16 15 15 15 14 12 12 9
11 11 10 9 8 9 10 12 13 14 15 17 17 18 19 18 16 14 14 14 13 10
16 13 11 11 10 10 12 13 14 15 16 18 19 19 23 19 16 15 15 16 15 15
14 13 13 13 11 12 14 14 14 16 17 17 17 21 6 7 12 14 18 18 17 17
15 16 16 14 13 14 13 13 14 15 16 15 17 20 20 18 18 17 18 21 19 18
16 15 15 15 15 13 10 13 14 15 18 17 19 18 17 16 16 21 20 20 21 24
18 17 18 18 16 12 12 14 17 17 18 20 22 21 19 18 23 22 23 23 25 23
19 19 19 19 16 14 15 15 16 17 21 21 20 17 15 12 15 22 25 23 22 18
21 20 20 19 16 14 14 17 19 20 19 14 12 22 21 15 16 25 30 23 20 19
22 20 19 16 13 13 18 19 16 18 19 19 19 23 14 14 15 21 21 21 19 14

GFSNIL_925_spd_009.txt.gz
Wind_Speed
11 8 9 8 11 7 4 2 3 1 2 4 6 8 10 9 9 10 5 5 4 10
10 11 9 7 7 5 3 4 2 2 4 5 7 9 10 10 10 8 6 4 8 10
15 14 10 8 7 6 5 5 6 7 7 8 10 12 14 13 13 14 13 10 9 8
19 17 13 12 8 7 7 6 7 8 10 11 13 14 15 13 12 13 11 12 12 9
19 14 16 15 11 10 9 8 9 10 11 12 15 15 15 17 16 14 14 15 13 12
20 19 18 15 12 11 10 11 11 11 12 14 15 15 18 18 16 16 16 18 16 15
26 23 20 17 15 14 14 12 12 12 14 14 15 16 18 19 17 16 16 17 18 19
29 25 22 19 17 17 16 16 15 14 13 13 15 14 13 12 9 11 14 16 19 22
31 28 23 21 21 21 18 17 15 14 12 13 14 15 15 17 16 13 15 18 19 19
33 29 27 26 23 21 21 18 15 14 12 15 16 14 15 13 16 17 20 18 19 20
29 28 28 27 24 22 20 18 15 17 17 16 16 16 14 14 18 21 20 18 16 19
28 29 28 25 22 21 20 19 18 17 16 17 19 16 14 14 17 18 19 18 17 19
29 27 25 23 24 24 23 23 20 18 13 9 11 12 11 8 13 18 17 17 17 21
27 26 27 27 27 26 24 22 17 13 14 16 13 9 11 10 12 12 13 18 24 22

GFSNIL_925_spd_015.txt.gz
Wind_Speed
23 22 21 20 18 16 16 14 13 11 9 7 6 5 5 7 8 8 8 9 8 7
23 21 19 19 16 15 14 13 14 12 10 9 9 8 7 8 8 10 9 10 12 11
26 23 21 20 19 18 16 15 14 13 13 11 10 10 10 10 11 12 13 12 13 15
27 23 22 21 19 19 18 17 16 14 13 12 11 10 12 13 13 12 14 15 15 16
30 26 25 23 21 20 20 18 17 15 14 13 12 11 13 13 13 14 16 17 16 18
35 33 31 26 23 23 21 20 19 17 14 12 12 13 13 14 15 16 17 20 22 22
42 40 35 30 29 28 24 21 19 16 14 13 15 16 15 14 16 17 14 15 15 19
45 40 36 32 32 31 26 22 18 18 17 16 18 18 14 13 14 14 16 17 18 20
17 25 20 26 31 32 27 22 19 24 23 19 18 16 13 13 14 16 17 19 20 22
29 27 47 40 40 33 32 28 24 25 25 20 18 16 14 14 15 18 19 18 20 21
40 42 40 38 41 35 32 28 25 29 23 20 19 16 15 16 15 18 17 17 15 15
43 47 35 30 34 36 28 24 29 24 22 21 17 12 17 15 14 15 17 15 13 14
32 28 31 32 33 34 27 30 28 21 21 19 13 19 17 16 15 15 16 14 10 11
11 13 10 5 9 16 24 26 26 23 20 19 14 17 15 14 12 14 14 14 13 13

GFSNIL_925_spd_021.txt.gz
Wind_Speed
26 23 26 21 17 18 16 14 15 17 16 15 12 11 10 7 6 7 7 7 8 8
28 26 25 24 21 19 19 15 17 16 17 16 14 11 9 7 7 8 9 9 9 10
27 30 24 19 18 19 19 17 15 16 16 16 14 13 12 10 10 10 10 10 10 11
26 24 25 22 20 16 16 15 16 16 17 16 15 14 13 12 11 11 11 10 11 13
26 30 28 20 17 17 13 13 16 18 19 18 15 13 13 12 12 13 13 11 11 13
31 32 34 33 25 14 8 8 17 19 21 21 16 16 17 17 15 16 15 11 11 13
28 36 40 35 30 26 13 25 26 26 27 25 22 21 21 19 17 18 15 13 14 15
28 37 39 41 41 40 21 34 33 27 29 27 25 23 23 20 18 16 15 13 14 15
31 38 40 40 38 46 34 41 39 34 32 30 28 24 26 24 18 16 16 15 16 15
31 35 39 36 33 35 40 35 30 34 32 27 28 27 29 25 20 16 17 15 17 18
28 29 30 33 37 36 31 27 27 26 24 24 26 31 29 25 21 20 18 17 19 16
27 29 30 33 33 31 25 25 25 23 20 19 20 21 20 10 18 26 24 21 16 15
25 27 29 30 29 25 22 22 22 22 19 23 26 24 22 22 20 23 26 23 19 14
23 24 23 23 24 22 19 20 19 23 25 22 18 22 21 19 26 28 27 23 14 9

GFSNIL_925_spd_024.txt.gz
Wind_Speed
25 23 20 17 14 13 11 10 10 12 11 10 10 9 7 7 8 7 7 7 8 8
25 23 20 17 16 15 13 10 12 13 11 11 11 10 9 9 9 9 8 8 9 10
26 24 22 22 19 16 16 16 16 14 12 12 12 11 12 11 11 10 9 9 9 11
28 26 25 25 23 22 17 18 20 17 11 13 14 14 14 13 12 12 10 11 11 12
30 29 30 28 27 22 21 19 21 18 16 21 18 16 16 15 13 13 12 11 12 13
31 31 31 33 26 27 24 23 24 21 22 20 18 20 21 17 15 14 16 14 14 14
30 32 35 32 31 31 28 30 32 25 22 26 23 23 21 18 17 17 17 16 16 15
28 28 29 32 33 37 35 36 29 20 19 20 22 22 21 19 18 18 17 17 16 16
26 26 31 33 34 33 35 39 25 18 17 22 22 23 24 21 19 18 18 16 17 16
26 26 28 30 31 31 33 28 21 17 18 21 22 23 25 24 22 19 17 13 13 17
24 25 25 28 31 33 33 32 26 21 18 20 22 25 27 27 21 21 17 15 13 17
22 21 22 25 27 28 28 28 25 23 21 20 24 24 26 27 23 20 24 22 20 19
18 17 18 19 21 23 25 25 25 24 20 19 21 23 25 22 20 20 23 22 21 19
17 19 19 19 19 19 20 19 19 20 18 18 21 22 20 22 19 17 17 18 18 17

GFSNIL_925_spd_027.txt.gz
Wind_Speed
27 26 25 22 19 16 14 13 17 15 12 10 8 8 7 6 5 6 5 6 5 6
28 28 27 24 24 16 14 13 15 15 16 15 9 8 8 7 7 6 7 7 7 7
30 29 26 23 21 21 18 16 18 19 23 19 23 20 18 10 11 10 10 9 7 7
32 30 28 27 26 24 21 21 22 24 24 24 22 19 19 18 12 12 11 10 9 9
33 33 32 31 29 28 26 27 28 26 25 24 21 20 21 16 13 14 13 11 12 12
34 35 36 34 31 30 31 31 30 29 28 27 25 24 23 19 17 15 14 13 14 14
34 35 34 33 33 34 34 34 34 33 30 24 25 21 21 19 17 17 16 15 14 15
33 32 30 29 30 29 32 31 30 29 25 21 22 22 23 20 18 18 17 17 14 17
31 31 29 28 28 29 25 24 25 25 23 20 21 22 24 21 18 20 19 19 16 17
28 28 27 26 28 29 29 30 32 28 24 20 20 20 23 24 21 20 20 21 17 17
26 25 25 26 28 28 27 29 27 25 23 21 19 19 21 20 24 22 21 20 18 19
27 26 24 25 27 27 24 23 26 25 21 20 18 16 18 23 22 22 22 21 23 20
25 24 24 23 21 20 20 20 20 22 21 20 20 19 20 24 23 22 22 20 21 23
22 21 19 18 18 18 20 19 19 19 19 23 22 20 19 23 20 20 19 19 19 22

GFSNIL_925_spd_030.txt.gz
Wind_Speed
36 25 25 21 18 23 17 22 26 25 21 20 17 16 18 18 17 13 9 7 4 7
34 33 28 24 26 18 20 16 26 28 24 21 21 20 18 16 16 14 13 10 9 8
35 33 31 30 28 28 21 19 25 27 26 25 24 22 20 18 16 14 12 11 9 11
35 34 34 30 32 31 31 26 27 27 26 26 24 23 25 20 18 19 16 15 12 8
35 35 34 36 31 32 33 27 28 29 28 30 26 26 26 24 19 21 20 17 14 11
36 36 36 36 37 32 32 30 33 34 33 31 30 29 29 27 23 22 21 18 17 14
37 37 38 35 34 34 34 34 36 34 33 31 31 29 27 25 24 23 20 20 18 18
37 37 34 33 32 33 32 33 32 30 29 30 30 28 29 27 27 26 23 21 21 19
35 35 34 32 31 33 31 29 29 29 29 28 26 25 28 28 25 25 24 22 20 20
36 36 35 32 32 30 29 27 27 25 25 26 25 24 26 29 27 26 24 24 22 20
34 34 33 32 29 27 27 27 25 25 26 24 23 24 21 29 31 26 24 25 24 23
33 31 31 29 27 25 22 25 24 24 23 24 21 22 21 25 29 29 29 25 22 22
28 28 26 24 19 18 20 19 22 22 23 24 22 19 22 25 26 29 27 24 23 25
25 24 21 20 17 14 15 14 17 21 22 20 21 24 23 24 24 25 21 21 20 18

GFSNIL_925_spd_033.txt.gz
Wind_Speed
40 30 33 29 21 27 25 23 26 24 23 23 21 17 16 14 13 11 11 10 11 8
44 40 33 30 26 22 25 26 28 30 29 28 24 22 21 18 16 16 14 11 10 8
43 41 39 33 29 31 22 23 30 36 34 31 27 25 25 22 20 18 19 17 14 11
36 41 40 40 34 31 31 24 25 38 37 33 29 28 28 26 22 24 22 20 18 16
37 35 37 38 39 40 36 33 30 35 37 35 33 31 31 29 26 26 26 24 21 18
36 36 37 39 36 42 42 41 35 37 39 38 36 35 34 33 30 27 29 27 25 22
38 38 39 36 39 38 42 42 41 41 41 40 38 36 36 33 33 31 27 27 28 25
39 38 37 36 36 42 39 43 44 41 40 38 37 37 35 35 32 32 30 28 31 27
39 37 37 37 36 38 38 37 36 39 39 36 33 29 33 35 33 32 31 31 29 28
38 38 38 37 36 34 35 32 34 34 33 32 31 31 33 34 31 31 32 33 33 27
38 37 36 35 34 31 32 31 30 29 32 31 29 29 29 29 32 32 32 34 31 31
39 37 35 35 32 30 28 27 28 30 27 28 29 31 30 26 30 34 32 29 28 29
37 36 34 33 31 30 32 29 27 28 28 27 28 26 28 30 27 34 32 31 30 27
35 34 34 34 33 34 29 30 33 33 31 34 29 27 22 25 25 24 26 30 28 25

GFSNIL_925_spd_036.txt.gz
Wind_Speed
42 37 34 33 33 26 30 34 32 30 30 26 23 20 19 15 13 11 13 13 12 9
44 40 37 34 25 29 34 34 32 31 32 28 27 24 22 19 17 15 14 13 13 12
45 45 41 37 33 32 34 34 34 34 33 32 31 28 25 22 19 17 17 15 13 12
40 43 46 43 39 36 34 36 35 37 38 36 35 32 28 26 22 21 20 20 19 16
39 41 43 44 45 41 38 36 37 37 42 40 39 36 33 30 27 25 25 22 22 21
38 40 42 44 43 46 45 39 39 36 39 43 42 39 36 34 32 30 28 27 27 24
41 42 43 43 43 44 46 45 42 41 39 39 42 42 39 36 34 32 31 30 30 29
42 42 41 39 41 42 43 42 46 43 39 39 40 41 40 38 37 36 34 31 29 30
40 39 40 39 38 38 40 39 36 40 41 41 38 40 41 38 37 37 37 36 32 29
40 40 40 38 36 38 37 35 36 38 39 40 40 39 38 37 37 35 35 33 31 31
39 39 37 36 36 33 35 35 36 37 38 39 40 38 37 33 32 37 32 30 29 30
40 38 36 36 35 34 33 33 34 38 38 39 38 40 35 32 32 29 28 27 27 27
40 37 37 37 36 33 35 34 34 37 38 38 36 33 30 27 28 29 29 30 30 26
37 39 38 36 33 34 32 32 35 36 34 28 27 26 25 27 27 28 27 27 27 26

GFSNIL_925_spd_042.txt.gz
Wind_Speed
44 42 43 40 36 32 32 30 26 27 29 28 25 22 21 21 19 17 14 14 13 12
44 41 41 41 39 35 34 30 26 25 28 30 28 25 22 24 22 19 16 15 16 14
48 48 47 44 42 42 38 34 32 28 26 30 31 28 26 26 24 22 19 17 17 16
40 41 46 45 45 43 41 36 36 33 30 31 33 31 31 30 28 25 23 20 19 18
44 43 43 46 47 44 42 39 38 37 35 35 37 35 35 35 33 30 27 25 23 21
39 40 43 46 46 46 44 42 41 40 39 39 41 40 37 38 37 34 32 30 28 26
42 44 46 48 46 47 47 45 45 44 42 42 43 41 40 40 39 37 34 32 31 30
42 43 43 42 42 43 45 46 46 46 46 45 44 44 44 42 41 39 37 35 34 31
40 40 41 40 41 44 44 44 44 44 45 47 46 46 47 44 42 41 39 39 39 37
39 40 41 38 38 43 43 38 43 44 43 46 49 48 50 46 43 41 40 39 42 33
35 38 37 39 42 42 39 41 41 40 44 44 47 49 50 46 44 40 38 37 35 28
38 38 35 37 41 40 36 37 40 39 37 42 43 44 44 43 41 34 37 36 28 27
41 40 40 42 39 37 36 36 32 33 38 40 38 41 42 42 41 34 34 35 31 25
35 37 38 34 32 33 31 29 32 33 32 36 41 38 41 44 40 35 31 22 24 30

GFSNIL_925_spd_045.txt.gz
Wind_Speed
39 35 34 30 28 25 23 22 23 25 24 23 21 21 19 17 17 17 15 14 13 10
38 37 33 33 32 28 26 22 25 26 25 25 25 24 22 19 20 20 18 16 15 13
40 40 40 33 33 32 31 32 23 26 25 24 24 25 26 21 21 22 19 16 16 17
39 39 37 35 36 37 38 38 35 32 28 26 24 25 27 26 22 25 22 20 18 17
38 38 38 39 39 40 39 41 41 39 33 28 26 25 28 28 23 26 24 22 20 18
39 38 40 41 41 38 40 40 40 36 35 32 29 30 28 29 27 27 26 24 24 22
40 43 43 42 40 40 41 41 41 41 40 39 35 32 29 29 29 28 28 27 26 25
43 42 40 39 40 41 39 40 44 42 41 42 39 35 33 33 32 30 31 28 28 28
38 39 42 39 38 38 40 39 38 39 40 39 40 38 42 41 34 31 34 31 28 25
36 37 39 38 37 40 40 37 39 39 39 41 43 43 49 47 39 34 35 34 30 24
33 36 33 33 38 39 38 40 39 41 41 40 43 46 49 51 49 38 35 35 31 27
36 35 33 36 40 39 35 36 40 39 38 41 42 45 52 51 46 42 36 32 30 30
35 34 37 42 37 34 36 37 33 33 36 38 38 40 46 51 41 40 36 31 32 37
32 33 30 25 25 25 25 22 26 32 33 33 34 37 43 48 46 36 33 35 36 38

GFSNIL_925_spd_048.txt.gz
Wind_Speed
34 32 30 27 26 22 21 19 17 19 21 20 17 15 15 13 12 12 12 11 10 9
35 35 32 30 27 27 23 21 19 20 22 21 19 18 16 16 15 15 15 13 12 12
36 35 36 31 31 28 27 27 22 22 23 22 21 20 20 19 18 18 17 17 15 14
37 37 36 36 35 34 31 28 28 26 24 24 23 22 23 22 21 21 20 19 19 18
38 37 37 38 38 36 35 33 32 29 28 27 26 25 25 25 25 25 24 23 21 21
38 38 39 38 39 39 37 35 34 32 32 31 31 30 29 29 27 28 26 25 25 23
40 42 41 39 39 39 38 37 36 35 35 36 35 34 34 30 29 29 29 27 27 25
41 39 36 36 37 37 37 38 38 37 37 37 37 37 36 35 34 32 31 29 30 28
37 36 37 36 35 35 37 37 36 37 38 38 41 43 43 41 37 35 32 32 31 29
34 35 35 34 33 37 38 35 38 38 39 40 41 44 46 47 39 36 36 34 32 31
33 32 31 33 37 37 35 37 38 38 38 38 41 44 47 48 48 40 35 34 34 33
33 33 33 35 37 33 30 30 30 30 31 34 32 34 41 45 42 42 36 33 35 34
33 33 35 34 29 28 29 29 28 29 29 29 28 26 30 38 35 29 23 31 37 43
29 31 29 26 27 26 27 26 28 28 28 26 29 33 35 36 39 39 41 40 35 37